User: anonymous   Login
Location: Unspecified
(0.0000°N, 0.0000°E)
Time: 15:24:32
(UTC+00:00)
Language:

USA 267 - Orbit

View from above orbital plane
View from above orbital plane
View from above satellite
View from above satellite

Ground track
Ground track

The orbit data is extracted from the following two-line orbital elements,

1 41334U 16010A   18049.80218728 0.00000000  00000-0  00000-0 0    04
2 41334 123.0034 130.7488 0007728 138.8910 221.1090 13.41389614    00
Epoch (UTC): 18 February 2018 19:15:08
Eccentricity: 0.0007728
inclination: 123.0034°
perigee height: 1098 km
apogee height: 1110 km
right ascension of ascending node: 130.7488°
argument of perigee: 138.8910°
revolutions per day: 13.41389614
mean anomaly at epoch: 221.1090°
orbit number at epoch: 0

The dashed part of the orbit path shows where the satellite is in the earth's shadow,  

DLR